Regional Weather Roundup
Issued by NWS Albany, NY

Home | Current Version | Previous Version | Graphics & Text | Print | Product List | Glossary Off
Versions: 1 2 3 4 5 6 7 8 9 10 11 12 13 14 15 16 17 18 19 20 21 22 23 24 25 26 27 28 29 30 31 32 33 34 35 36 37 38 39 40 41 42 43 44 45 46 47 48 49 50

000
ASUS41 KALY 262210
RWRALY

NEW YORK STATE HOURLY WEATHER ROUNDUP
NATIONAL WEATHER SERVICE ALBANY NY
600 PM EDT FRI MAY 26 2017

NOTE: "FAIR" INDICATES FEW OR NO CLOUDS BELOW 12,000 FEET WITH NO
SIGNIFICANT WEATHER AND/OR NO OBSTRUCTIONS TO VISIBILITY.

NYZ032-033-038>043-046>054-057>066-NYZ062>081-082-084-262300-
EAST


CITY           SKY/WX    TMP DP  RH WIND       PRES   REMARKS
ALBANY         CLOUDY    61  58  90 N5        29.66R
GLENS FALLS    LGT RAIN  57  54  89 NW5       29.67R FOG
POUGHKEEPSIE   CLOUDY    70  54  56 W9        29.63R
NEWBURGH       PTSUNNY   70  57  64 NW17      29.67R
MONTGOMERY     MOSUNNY   71  53  52 NW17G24   29.65R
WHITE PLAINS   MOSUNNY   71  53  52 NW13      29.64R
ISLIP          MOSUNNY   76  53  44 NW12      29.61R
NEW YORK CITY  MOSUNNY   76  52  43 W14       29.63R
CENTRAL PARK   PTSUNNY   73  54  51 VRB5G17   29.66R
$$

NYZ005>009-017-018-044>046-055-056-262300-
CENTRAL


CITY           SKY/WX    TMP DP  RH WIND       PRES   REMARKS
FULTON         LGT RAIN  56  54  93 NW8       29.77R FOG
SYRACUSE       CLOUDY    58  55  90 NW12      29.76R
ROME           CLOUDY    58  55  90 W14       29.75R
ELMIRA         LGT RAIN  61  54  77 NW10      29.77R
BINGHAMTON     CLOUDY    58  53  84 NW9       29.75R
MONTICELLO     CLOUDY    61  54  77 NW17G29   29.72R
$$

NYZ026>034-041>043-087-262300-
NORTH


CITY           SKY/WX    TMP DP  RH WIND       PRES   REMARKS
WATERTOWN      CLOUDY    61  53  75 N8        29.75R
FORT DRUM      NOT AVBL
OGDENSBURG     DRIZZLE   57  53  88 N3        29.76R
MASSENA        LGT RAIN  56  53  90 N6        29.76R
SARANAC LAKE   CLOUDY    50  50 100 VRB5      29.70R
PLATTSBURGH    LGT RAIN  54  51  90 NW12      29.70R
$$

NYZ001>004-010>016-019>021-085-262300-
WEST


CITY           SKY/WX    TMP DP  RH WIND       PRES   REMARKS
NIAGARA FALLS  CLOUDY    61  55  81 SW9       29.79R
BUFFALO        LGT RAIN  55  52  89 SW14      29.81R FOG
DUNKIRK        CLOUDY    57  53  86 SW14      29.84R
JAMESTOWN      CLOUDY    55  48  76 W9        29.86R
WELLSVILLE     CLOUDY    58  50  75 W15G22    29.84R
ROCHESTER      CLOUDY    60  56  86 W8        29.79R
PENN YAN       LGT RAIN  59  55  87 NW6       29.79R FOG
$$

             KEY
       WCI = WIND CHILL INDEX
       VSB = VISIBILITY
       HX  = HEAT INDEX
$$



USA.gov is the U.S. government's official web portal to all federal, state and local government web resources and services.